Flag for France Weather past 2 weeks in Toulon, France

Now
72 °F

Passing clouds.


Feels Like: 75 °F
Forecast: 54 / 73 °F
Wind: 7 mph from South

Location: Hyeres Airport

Current Time: May 6, 2015 at 11:41:23 AM

Latest Report: May 6, 2015 at 11:00 AM


Visibility: N/A

Pressure: 29.92 "Hg

Humidity: 65%

Dew point: 59 °F

Location of ToulonLocation

Historic Weather in Toulon — Graph

°F

Toulon temperature yesterday

Maximum temperature yesterday: 72 °F (at 12:00 PM)
Minimum temperature yesterday: 64 °F (at 8:30 PM)
Average temperature yesterday: 68 °F

Past Weeks' High & Low Weather Summary

 TemperatureHumidityPressure
High75 °F (May 2, 3:30 PM)100% (Apr 24, 6:30 AM)30.24 "Hg (Apr 24, 6:30 AM)
Low45 °F (Apr 22, 6:00 AM)29% (Apr 28, 5:30 PM)29.53 "Hg (Apr 27, 9:00 AM)
Average61 °F76%29.92 "Hg
* Reported Apr 21 10:00 AM — May 6 10:30 AM, Toulon, Weather by CustomWeather, © 2015

Note: Actual official high and low records may vary slightly from our data, if they occured in-between our weather recording intervals... More about our weather records

Advertising

Toulon weather history for previous 24 hours

 ConditionsComfort  
Time TempWeatherWind HumidityBarometerVisibility
10:30 AM
Wed, May 6
70 °FSunny.3 mph69%29.92 "Hg10 mi
10:00 AM68 °FPassing clouds.3 mph73%29.95 "HgN/A
9:23 AM68 °FSunny.2 mph73%29.95 "Hg10 mi
9:00 AM66 °FSunny.1 mph73%29.92 "Hg10 mi
8:30 AM64 °FSunny.3 mph78%29.92 "Hg10 mi
8:00 AM63 °FSunny.5 mph88%29.92 "Hg10 mi
7:30 AM63 °FSunny.3 mph88%29.89 "Hg10 mi
7:00 AM61 °FClear.No wind88%29.89 "Hg10 mi
6:30 AM59 °FClear.2 mph94%29.89 "Hg10 mi
5:30 AM61 °FClear.2 mph88%29.89 "Hg10 mi
5:00 AM59 °FCool.2 mph94%29.86 "HgN/A
4:30 AM61 °FCool.2 mph94%29.89 "HgN/A
4:00 AM61 °FCool.2 mph88%29.89 "HgN/A
3:30 AM63 °FMild.5 mph88%29.89 "HgN/A
3:00 AM63 °FMild.5 mph88%29.89 "HgN/A
2:30 AM63 °FMild.3 mph88%29.89 "HgN/A
2:00 AM63 °FMild.3 mph88%29.89 "HgN/A
1:30 AM63 °FMild.2 mph88%29.89 "HgN/A
1:00 AM63 °FMild.No wind88%29.89 "HgN/A
12:30 AM64 °FMild.1 mph83%29.92 "HgN/A
12:00 AM64 °FMild.2 mph83%29.89 "HgN/A
11:30 PM
Tue, May 5
64 °FMild.5 mph78%29.89 "HgN/A
11:00 PM64 °FMild.2 mph78%29.89 "HgN/A
10:30 PM64 °FClear.2 mph78%29.86 "Hg10 mi
10:00 PM64 °FClear.2 mph78%29.86 "Hg10 mi
9:30 PM64 °FSunny.No wind78%29.86 "Hg10 mi
9:00 PM64 °FSunny.2 mph78%29.86 "Hg10 mi
8:30 PM64 °FSunny.3 mph78%29.83 "Hg10 mi
8:00 PM66 °FSunny.6 mph73%29.83 "Hg10 mi
7:30 PM66 °FSunny.10 mph73%29.83 "Hg10 mi
7:00 PM68 °FSunny.10 mph64%29.83 "Hg10 mi
6:30 PM68 °FSunny.8 mph69%29.86 "Hg10 mi
6:00 PM68 °FMild.9 mph64%29.86 "HgN/A
5:30 PM70 °FClear.14 mph60%29.83 "HgN/A
5:00 PM70 °FClear.15 mph60%29.80 "HgN/A
4:30 PM72 °FClear.15 mph53%29.83 "HgN/A
4:00 PM72 °FClear.17 mph57%29.83 "HgN/A
3:30 PM72 °FClear.13 mph61%29.83 "HgN/A
3:00 PM72 °FClear.15 mph57%29.86 "HgN/A
2:30 PM72 °FClear.13 mph57%29.86 "HgN/A
2:00 PM72 °FClear.14 mph57%29.83 "HgN/A
1:30 PM72 °FClear.15 mph57%29.83 "HgN/A
1:00 PM72 °FClear.14 mph53%29.83 "HgN/A
12:30 PM72 °FClear.15 mph57%29.83 "HgN/A
12:00 PM72 °FClear.12 mph57%29.83 "HgN/A
11:30 AM70 °FClear.16 mph60%29.83 "HgN/A
11:00 AM70 °FClear.9 mph60%29.83 "HgN/A
Weather by CustomWeather, © 2015

See weather overviewHow to use our weather pages